Location: ??
(34.9170°N, 135.5016°E)
Time: 00:06:51
(UTC+00:00)

RS-15 - Pass Details

Date: 20 April 2021
Orbit: 1888 x 2157 km, 64.8° (Epoch: 12 May)

Event Time Altitude Azimuth Distance (km) Brightness Sun altitude
Rises 12:44:41 0° 281° (W) 5,341 11.0 -33.8°
Reaches altitude 10° 12:50:00 10° 302° (WNW) 4,391 10.6 -34.5°
Maximum altitude 12:56:33 17° 338° (NNW) 3,938 10.2 -35.4°
Drops below altitude 10° 13:03:18 10° 14° (NNE) 4,524 10.3 -36.2°
Sets 13:09:00 0° 35° (NE) 5,580 10.7 -36.8°
